Regional Weather Roundup
Issued by NWS State College, PA

Home | Current Version | Previous Version | Text Only | Print | Product List | Glossary On
Versions: 1 2 3 4 5 6 7 8 9 10 11 12 13 14 15 16 17 18 19 20 21 22 23 24 25 26 27 28 29 30 31 32 33 34 35 36 37 38 39 40 41 42 43 44 45 46 47 48 49 50
000
ASUS41 KCTP 241103
RWRCTP

REGIONAL WEATHER ROUNDUP
NATIONAL WEATHER SERVICE STATE COLLEGE PA
700 AM EDT MON APR 24 2017

Note: "fair" indicates few or no clouds below 12,000 feet with no
significant weather and/or obstructions to visibility.

* = STATION THAT DOES NOT REPORT PRECIPITATION /E.G. RAIN...SNOW...ETC/
    THUNDER OR FOG.

PAZ002>004-007>009-013>016-020>023-029>032-241200-
WESTERN PENNSYLVANIA

CITY           SKY/WX    TMP DP  RH WIND       PRES   REMARKS
ERIE           CLEAR     40  33  76 E7        30.08R
MEADVILLE      PTCLDY    44  28  53 E3        30.05R
FRANKLIN*      PTCLDY    39  30  70 E5        30.08R
NEW CASTLE     NOT AVBL
BEAVER COUNTY  NOT AVBL
BUTLER*        MOCLDY    41  36  81 NE7       30.05S
PITTSBURGH INT MOCLDY    47  35  63 NE9       30.02R
PITTSBURGH     CLOUDY    49  33  54 SE6       30.01S
INDIANA*       CLEAR     46  39  76 CALM      30.08R
LATROBE        MOCLDY    54  37  54 E6        30.04S
WASHINGTON CO* MOCLDY    48  36  61 NE6       30.01S
$$

PAZ004>006-010>012-017>019-024>028-033>037-041-042-045-046-049>053-241200-
CENTRAL PENNSYLVANIA

CITY           SKY/WX    TMP DP  RH WIND       PRES   REMARKS
BRADFORD       CLOUDY    37  31  78 CALM      30.09R
DUBOIS         MOCLDY    41  29  62 E6        30.07R
CLEARFIELD     MOCLDY    34  32  92 N7        30.10R
JOHNSTOWN      CLOUDY    47  39  74 E6        30.05R
ALTOONA        CLOUDY    46  42  86 E3        30.09R
STATE COLLEGE  CLEAR     39  34  81 CALM      30.10R
WILLIAMSPORT   CLOUDY    41  37  86 N3        30.12R
SELINSGROVE    MOCLDY    39  39 100 NW5       30.12R
FT INDIANTOWN  CLOUDY    45  45  99 NE3       30.12R
CAPITAL CITY   CLOUDY    49  44  83 CALM      30.12R
HARRISBURG     CLOUDY    49  45  86 CALM      30.12R
YORK           CLOUDY    50  48  93 CALM      30.11R
$$

PAZ038>040-043-044-047-048-054-055-060>062-067>071-241200-
EASTERN PENNSYLVANIA

CITY           SKY/WX    TMP DP  RH WIND       PRES   REMARKS
SCRANTON       CLEAR     44  36  73 E7        30.12R
MOUNT POCONO   CLEAR     38  36  92 CALM      30.12R
ALLENTOWN      CLOUDY    45  41  86 N3        30.14R
QUAKERTOWN*    CLOUDY    45  45 100 CALM      30.14R
READING        CLOUDY    48  47  96 N5        30.12R
LANCASTER      CLOUDY    49  48  97 N5        30.11R
COATESVILLE    CLOUDY    48  46  93 CALM      30.12R
POTTSTOWN      CLOUDY    47  45  93 NE5       30.14R
BLUE BELL      CLOUDY    46  45  93 CALM      30.14R
DOYLESTOWN     CLOUDY    46  45  96 NE3       30.13R
WILLOW GROVE   NOT AVBL
NORTH PHILA    CLOUDY    50  46  86 NE5       30.15R
PHILADELPHIA   CLOUDY    50  43  77 NE5       30.13R
$$




USA.gov is the U.S. government's official web portal to all federal, state and local government web resources and services.